Regional Weather Roundup
Issued by NWS

Home | Current Version | Previous Version | Graphics & Text | Print | Product List | Glossary On
Versions: 1 2 3 4 5 6 7 8 9 10 11 12 13 14 15 16 17 18 19 20 21 22 23 24 25 26 27
000
ASUS45 KTFX 292010
RWRMT
MONTANA REGIONAL WEATHER ROUNDUP
NATIONAL WEATHER SERVICE GREAT FALLS MT
200 PM MDT SUN MAY 29 2016

NOTE: "FAIR" INDICATES FEW OR NO CLOUDS BELOW 12000 FEET WITH NO
SIGNIFICANT WEATHER AND/OR OBSTRUCTIONS TO VISIBILITY.

MTZ001>007-043-292100-
WEST OF THE DIVIDE

CITY           SKY/WX    TMP DP  RH WIND       PRES   REMARKS
KALISPELL      MOSUNNY   64  45  49 S12       29.95F
MISSOULA       MOSUNNY   63  42  46 CALM      30.02R
BUTTE          CLOUDY    64  25  22 SW12G22   30.06F
MULLAN PASS    LGT RAIN  52  36  54 W9G17     30.06S
ANACONDA         N/A     64  28  25 SW5       30.03S
DEER LODGE       N/A     66  34  30 CALM      30.03F
EUREKA           N/A     68  37  32 S5        29.93F
HAMILTON         N/A     66  43  42 SW3       29.99S
LIBBY            N/A     64  39  39 W3        29.96F
$$

MTZ008-052>055-292100-
SOUTHWEST MONTANA

CITY           SKY/WX    TMP DP  RH WIND       PRES   REMARKS
BOZEMAN        SUNNY     68  39  34 NW9       30.04F
DILLON         SUNNY     68  28  22 SW16      30.04F
W YELLOWSTONE  MOSUNNY   61  28  29 SW20G28   30.14F
ENNIS          MOSUNNY   68  30  24 SW14G20   30.10F
$$

MTZ009-010-012-014-046-048-049-054-292100-
EAST SLOPES AND CENTRAL MONTANA

CITY           SKY/WX    TMP DP  RH WIND       PRES   REMARKS
CUT BANK         N/A     66  36  32 W26G33    29.95F
GREAT FALLS    MOSUNNY   70  33  25 SW16      29.96F
MALMSTROM AFB  MOSUNNY   68  34  28 W9G21     29.97F
HELENA         MOSUNNY   69  35  28 SE10      30.00F
CHOTEAU          N/A     68  32  26 W9        29.97F
$$

MTZ011-013-016-021-045-047-050-051-292100-
NORTH CENTRAL MONTANA

CITY           SKY/WX    TMP DP  RH WIND       PRES   REMARKS
HAVRE          SUNNY     70  38  31 SW16      29.93F
LEWISTOWN      SUNNY     69  37  30 N8        30.01F
N BAR RANCH    PTSUNNY   64  34  32 NE5       30.04S
CHINOOK          N/A     70  36  28 W10G23    29.93F
$$

MTZ017>020-022>027-061-062-292100-
NORTHEAST MONTANA

CITY           SKY/WX    TMP DP  RH WIND       PRES   REMARKS
GLASGOW        SUNNY     71  36  27 W10       29.95F
JORDAN           N/A     75  34  22 W18G25    29.97F
SIDNEY         SUNNY     75  37  25 W12       29.96F
WOLF POINT     SUNNY     75  37  25 SW15G21   29.97S
PLENTYWOOD       N/A     70  34  26 W13G23    29.95F
POPLAR           N/A     72  37  28 W14G20    29.97S
$$

MTZ028>42-056>058-292100-
SOUTHCENTRAL AND SOUTHEAST MONTANA

CITY           SKY/WX    TMP DP  RH WIND       PRES   REMARKS
BAKER          SUNNY     76  36  23 VRB6      30.01F
BILLINGS       MOSUNNY   72  39  30 SW6       30.01F
LIVINGSTON     SUNNY     70  35  27 NW9       30.01F
MILES CITY     SUNNY     75  39  27 VRB3      29.98F
FORSYTH          N/A     73  45  35 N3        29.98F
$$

REGIONAL REPORTS...DAKOTAS

CITY           SKY/WX    TMP DP  RH WIND       PRES   REMARKS
WILLISTON      SUNNY     76  35  22 W10G18    29.96F
MINOT          MOSUNNY   77  38  24 W14       29.96S
DICKINSON      MOSUNNY   72  38  29 W8        29.97F
BEACH            N/A     73  37  27 W12G22    30.02F
CROSBY         PTSUNNY   68  37  32 W12G17    29.97F
WATFORD CITY     N/A     73  37  27 W12G17    29.98F
BISMARCK       MOSUNNY   76  43  30 VRB6G17   30.00F
GRAND FORKS    MOSUNNY   74  52  46 NW10G20   29.92S
FARGO          SUNNY     77  46  33 W17G25    29.94F
BUFFALO SD       N/A     76  45  33 SE17      29.96F
RAPID CITY     MOSUNNY   74  50  42 SE13      30.04F
$$

REGIONAL REPORTS...WYOMING/IDAHO/WASHINGTON

CITY           SKY/WX    TMP DP  RH WIND       PRES   REMARKS
GILLETTE       PTSUNNY   69  40  34 SE8       30.05F
SHERIDAN       SUNNY     74  37  26 SE10      30.02F
BUFFALO WY     PTSUNNY   68  45  43 SE8G18    30.07F
CODY           MOSUNNY   70  36  28 SE7G17    30.04F
YELLOWSTONE LA   N/A     58  25  28 VRB3G17   30.22F
IDAHO FALLS    MOSUNNY   71  38  29 SW9G22    30.08F
SALMON         MOSUNNY   68  37  32 N8        29.99F
BOISE          SUNNY     78  28  16 W6        29.97F
SPOKANE        PTSUNNY   68  37  32 W17G28    29.97F
$$

REGIONAL REPORTS...ALBERTA

CITY           SKY/WX    TMP DP  RH WIND       PRES   REMARKS
EDMONTON       LGT RAIN  63  46  55 E9        29.83F
CALGARY        PTSUNNY   63  34  34 S10       29.84S
LETHBRIDGE     MOSUNNY   66  39  37 W18G33    29.90S
MEDICINE HAT   MOSUNNY   72  36  26 W17G26    29.86F
WATERTON GATE    N/A     64  32  29 SW10G21     N/A
MILK RIVER       N/A     68  36  30 W14G23      N/A
$$

REGIONAL REPORTS...SASKATCHEWAN

CITY           SKY/WX    TMP DP  RH WIND       PRES   REMARKS
SWIFT CURRENT  SUNNY     66  41  39 W18G25    29.90S
REGINA         PTSUNNY   70  39  32 SW16G28   29.90F
SASKATOON      MOSUNNY   68  45  42 W9        29.88S
CYPRESS HILLS    N/A     61  32  33 W14G23      N/A
VAL MARIE        N/A     70  34  26 W16G25      N/A
ROCKGLEN         N/A     66  39  37 W14G20      N/A
ASSINIBOIA       N/A     64  46  52 E9          N/A
$$




USA.gov is the U.S. government's official web portal to all federal, state and local government web resources and services.